This is the latest recevied weather packets stored in our database for station/object KN6ZYR. If no packets are shown the sender has not sent any weather packets the latest 10 day(s).
| Time | Temp. | Humidity | Pressure | Rain* | Wind** | Luminosity | Snow |
|---|---|---|---|---|---|---|---|
| 1777575189 | 21.67° C | 18% | 1020.4 hPa | 0 mm | - | 793 W/m² | - |
| 1777574885 | 21.67° C | 18% | 1020.7 hPa | 0 mm | - | 796 W/m² | - |
| 1777574582 | 21.11° C | 17% | 1020.6 hPa | 0 mm | - | 809 W/m² | - |
| 1777574279 | 21.67° C | 17% | 1020.6 hPa | 0 mm | - | 348 W/m² | - |
| 1777573974 | 21.67° C | 17% | 1020.7 hPa | 0 mm | - | 772 W/m² | - |
| 1777573669 | 22.22° C | 18% | 1020.8 hPa | 0 mm | - | 764 W/m² | - |
| 1777573366 | 21.67° C | 17% | 1020.8 hPa | 0 mm | - | 757 W/m² | - |
| 1777573061 | 22.22° C | 18% | 1020.9 hPa | 0 mm | - | 749 W/m² | - |
| 1777572759 | 22.78° C | 16% | 1020.9 hPa | 0 mm | - | 740 W/m² | - |
| 1777572452 | 21.67° C | 17% | 1021 hPa | 0 mm | - | 733 W/m² | - |
| 1777572149 | 22.22° C | 18% | 1021 hPa | 0 mm | - | 727 W/m² | - |
| 1777571844 | 21.11° C | 18% | 1020.9 hPa | 0 mm | - | 718 W/m² | - |
| 1777571541 | 21.11° C | 18% | 1021.2 hPa | 0 mm | - | 710 W/m² | - |
| 1777571237 | 21.11° C | 19% | 1021.3 hPa | 0 mm | - | 698 W/m² | - |
| 1777570934 | 21.11° C | 19% | 1021.2 hPa | 0 mm | - | 688 W/m² | - |
| 1777570629 | 20.56° C | 19% | 1021.3 hPa | 0 mm | - | 675 W/m² | - |
| 1777570326 | 21.11° C | 20% | 1021 hPa | 0 mm | - | 664 W/m² | - |
| 1777570021 | 21.11° C | 20% | 1020.9 hPa | 0 mm | - | 651 W/m² | - |
| 1777569718 | 21.67° C | 20% | 1021 hPa | 0 mm | - | 639 W/m² | - |
| 1777569413 | 21.67° C | 20% | 1021.3 hPa | 0 mm | - | 626 W/m² | - |
| 1777569105 | 20.56° C | 21% | 1021.2 hPa | 0 mm | - | 615 W/m² | - |
| 1777568802 | 20° C | 22% | 1021.2 hPa | 0 mm | - | 600 W/m² | - |
| 1777568500 | 20° C | 22% | 1021 hPa | 0 mm | - | 588 W/m² | - |
| 1777568196 | 20° C | 21% | 1021.2 hPa | 0 mm | - | 575 W/m² | - |
| 1777567893 | 21.11° C | 21% | 1021 hPa | 0 mm | - | 560 W/m² | - |
* Rain latest hour (hover to see other rain measurements)
** Current wind speed in m/s (hover to see current wind gust speed)